Miltona Lake Weather Center

Moon Phase Calendar



Miltona Lake Water Level
Online Cameras

 


      

Current Conditions in Parkers Prairie
5/16/2021 5:16:53 PM

75°F
Feels Like 74
Clear
Humidity
25%
Pressure
30"
Wind
5.8 mph (SW)
Dew Point
37°F
UV Index
3/10 (Moderate)
Visibility
6 mi

Hourly Forecast

Date & Time Sun, May 16
5:00 PM
Sun, May 16
6:00 PM
Sun, May 16
7:00 PM
Sun, May 16
8:00 PM
Sun, May 16
9:00 PM
Sun, May 16
10:00 PM
Sun, May 16
11:00 PM
Mon, May 17
12:00 AM
Mon, May 17
1:00 AM
Mon, May 17
2:00 AM
Mon, May 17
3:00 AM
Mon, May 17
4:00 AM
Mon, May 17
5:00 AM
Mon, May 17
6:00 AM
Mon, May 17
7:00 AM
Mon, May 17
8:00 AM
Mon, May 17
9:00 AM
Mon, May 17
10:00 AM
Mon, May 17
11:00 AM
Mon, May 17
12:00 PM
Mon, May 17
1:00 PM
Mon, May 17
2:00 PM
Mon, May 17
3:00 PM
Mon, May 17
4:00 PM
Mon, May 17
5:00 PM
Mon, May 17
6:00 PM
Mon, May 17
7:00 PM
Mon, May 17
8:00 PM
Mon, May 17
9:00 PM
Mon, May 17
10:00 PM
Mon, May 17
11:00 PM
Tue, May 18
12:00 AM
Tue, May 18
1:00 AM
Tue, May 18
2:00 AM
Tue, May 18
3:00 AM
Tue, May 18
4:00 AM
Tue, May 18
5:00 AM
Tue, May 18
6:00 AM
Tue, May 18
7:00 AM
Tue, May 18
8:00 AM
Tue, May 18
9:00 AM
Tue, May 18
10:00 AM
Tue, May 18
11:00 AM
Tue, May 18
12:00 PM
Tue, May 18
1:00 PM
Tue, May 18
2:00 PM
Tue, May 18
3:00 PM
Tue, May 18
4:00 PM
Condition
Clear

Clouds

Clouds

Clear

Clouds

Clouds

Clouds

Clouds

Clear

Clear

Clear

Clear

Clear

Clear

Clear

Clear

Clear

Clear

Clear

Clear

Clear

Clear

Clear

Clear

Clear

Clear

Clear

Clear

Clear

Clear

Clear

Clear

Clear

Clear

Clear

Clear

Clear

Clear

Clear

Clear

Clouds

Clouds

Clouds

Clouds

Clouds

Clouds

Clouds

Clouds
Temperature 75°F75°F74°F70°F64°F59°F58°F56°F55°F54°F53°F53°F53°F52°F55°F59°F63°F66°F69°F70°F72°F73°F74°F74°F73°F72°F70°F66°F61°F59°F58°F58°F56°F54°F53°F53°F52°F51°F54°F58°F61°F64°F65°F65°F66°F65°F64°F62°F
Feels Like 74°F73°F72°F68°F62°F58°F56°F54°F53°F53°F52°F52°F52°F51°F54°F59°F62°F66°F68°F70°F71°F72°F73°F73°F72°F71°F69°F65°F61°F59°F57°F57°F55°F54°F53°F52°F51°F51°F53°F57°F60°F63°F64°F64°F65°F64°F63°F62°F
Cloudiness 1%16%26%6%13%18%13%11%9%0%0%0%0%0%0%0%0%0%0%0%0%0%0%0%0%0%0%0%0%0%0%0%0%0%0%0%0%0%0%1%19%30%42%54%61%100%100%100%
Visibility 6 mi6 mi6 mi6 mi6 mi6 mi6 mi6 mi6 mi6 mi6 mi6 mi6 mi6 mi6 mi6 mi6 mi6 mi6 mi6 mi6 mi6 mi6 mi6 mi6 mi6 mi6 mi6 mi6 mi6 mi6 mi6 mi6 mi6 mi6 mi6 mi6 mi6 mi6 mi6 mi6 mi6 mi6 mi6 mi6 mi6 mi6 mi6 mi
Precipitation 0%0%0%0%0%0%0%0%0%0%0%0%0%0%0%0%0%0%0%0%0%0%0%0%0%0%0%0%0%0%0%0%0%0%0%0%0%0%0%0%0%0%0%0%0%0%0%0%
Humidity 25%28%33%43%53%62%63%66%71%78%83%85%87%89%85%76%69%63%56%50%46%44%42%42%43%47%53%65%71%75%76%77%85%90%92%94%95%96%93%86%79%73%69%69%66%69%75%80%
Dew Point 37°F39°F43°F46°F46°F46°F45°F45°F46°F48°F48°F49°F49°F49°F51°F52°F53°F53°F53°F51°F50°F50°F49°F50°F50°F51°F53°F54°F52°F51°F51°F51°F52°F52°F51°F51°F51°F50°F52°F54°F55°F55°F54°F55°F54°F55°F56°F56°F
Pressure 30"30"30"29.97"30"30"30"30.03"30.03"30.03"30.03"30.03"30.06"30.06"30.06"30.09"30.09"30.09"30.09"30.09"30.06"30.06"30.03"30.03"30.03"30.03"30.03"30.03"30.03"30.06"30.06"30.06"30.06"30.06"30.06"30.06"30.06"30.06"30.06"30.06"30.06"30.03"30.03"30"30"30"30"30"
Wind Speed 5.4 mph4.5 mph3.6 mph3.9 mph4.7 mph5 mph5.6 mph5.9 mph6.1 mph6.8 mph6 mph4.6 mph4.8 mph4.2 mph3 mph4.1 mph5.6 mph6.7 mph7.9 mph8.9 mph9.6 mph9.8 mph10.4 mph11.4 mph12.2 mph12.1 mph10.9 mph7.9 mph8.6 mph8.5 mph9.5 mph10.7 mph8.5 mph8 mph8.6 mph8.7 mph7.6 mph7.9 mph9 mph11.7 mph11.8 mph12.5 mph12.6 mph11.9 mph13.5 mph14 mph13.9 mph12 mph
Wind
Direction
197°
SSW
198°
SSW
175°
S
156°
SSE
171°
S
178°
S
179°
S
196°
SSW
207°
SSW
209°
SSW
218°
SW
234°
SW
230°
SW
240°
WSW
215°
SW
185°
S
172°
S
169°
S
163°
SSE
161°
SSE
153°
SSE
146°
SE
139°
SE
138°
SE
141°
SE
140°
SE
139°
SE
134°
SE
135°
SE
143°
SE
143°
SE
150°
SSE
148°
SSE
137°
SE
136°
SE
143°
SE
139°
SE
140°
SE
138°
SE
151°
SSE
151°
SSE
150°
SSE
153°
SSE
140°
SE
140°
SE
142°
SE
141°
SE
135°
SE

Daily Forecast

Date High Low Precip. Humidity
Today
May 16

Clouds
75 °F
50 °F
0%
37%
Monday
May 17

Clear
74 °F
52 °F
0%
46%
Tuesday
May 18

Rain
66 °F
51 °F
20%
66%
Wednesday
May 19

Rain
72 °F
55 °F
64%
60%
Thursday
May 20

Rain
75 °F
60 °F
100%
62%
Friday
May 21

Clouds
77 °F
64 °F
23%
69%
Saturday
May 22

Rain
78 °F
66 °F
100%
82%
Sunday
May 23

Rain
60 °F
45 °F
100%
64%
Monday
May 24

Rain
56 °F
44 °F
100%
81%
Tuesday
May 25

Rain
62 °F
45 °F
64%
74%
Wednesday
May 26

Rain
66 °F
54 °F
65%
69%
Thursday
May 27

Rain
67 °F
45 °F
100%
54%
Friday
May 28

Rain
70 °F
57 °F
100%
88%
Saturday
May 29

Rain
62 °F
46 °F
100%
64%
Sunday
May 30

Clear
63 °F
42 °F
2%
55%
Monday
May 31

Rain
65 °F
55 °F
100%
75%

Temperature 8-14 Day Outlook



Precipitation 8-14 Day Outlook




Quick Links
Miltona Lake News
Miltona Lake Photos
Miltona Lake Videos




About Us
Contact Us
Site Map
Search Site
Advertise With Us
   
Miltona.USLakes.info
THE MILTONA LAKE WEBSITE

Copyright 2021, Lakes Online
Privacy    |    Legal